When you browse on this site, cookies collect data to enhance your experience and personalize the content and advertising you see.
Visit our Privacy Policy to learn more. By continuing to use the site, you agree to this use of cookies and data.
  • In United Kingdom
  • List of Countries
  • For 7 days
  • Water Temperature
  • Satellite Maps
  • Weather Map
  • Weather Widgets
  • user-avatar
    Login

    Hourly Weather Sololá

    Today, 26 April, Friday

    Time Temperature Precipitation Wind Pressure Humidity
    00:00 +15°C° 0 mm 1 mps 594 mmHg 84%
    01:00 +15°C° 0 mm 1 mps 594 mmHg 83%
    02:00 +14°C° 0 mm 1 mps 593 mmHg 83%
    03:00 +14°C° 0 mm 1 mps 593 mmHg 82%
    04:00 +14°C° 0 mm 1 mps 593 mmHg 82%
    05:00 +14°C° 0 mm 1 mps 593 mmHg 82%
    06:00 +14°C° 0 mm 1 mps 593 mmHg 83%
    07:00 +16°C° 0 mm 1 mps 595 mmHg 74%
    08:00 +20°C° 0 mm 1 mps 596 mmHg 66%
    09:00 +23°C° 0 mm 1 mps 598 mmHg 57%
    10:00 +23°C° 0.1 mm 2 mps 598 mmHg 57%
    11:00 +23°C° 0.1 mm 2 mps 597 mmHg 57%
    12:00 +23°C° 0.1 mm 2 mps 597 mmHg 56%
    13:00 +24°C° 0.4 mm 2 mps 597 mmHg 55%
    14:00 +24°C° 0.4 mm 2 mps 597 mmHg 54%
    15:00 +24°C° 0.4 mm 3 mps 596 mmHg 53%
    16:00 +23°C° 0.3 mm 2 mps 596 mmHg 59%
    17:00 +20°C° 0.3 mm 2 mps 595 mmHg 65%
    18:00 +19°C° 0.3 mm 2 mps 595 mmHg 70%
    19:00 +18°C° 0 mm 2 mps 595 mmHg 73%
    20:00 +17°C° 0 mm 2 mps 595 mmHg 76%
    21:00 +15°C° 0 mm 2 mps 595 mmHg 79%
    22:00 +15°C° 0 mm 2 mps 595 mmHg 78%
    23:00 +15°C° 0 mm 2 mps 594 mmHg 76%

    Tomorrow, 27 April, Saturday

    Time Temperature Precipitation Wind Pressure Humidity
    00:00 +15°C° 0 mm 2 mps 594 mmHg 75%
    01:00 +15°C° 0 mm 2 mps 594 mmHg 78%
    02:00 +14°C° 0 mm 2 mps 593 mmHg 82%
    03:00 +14°C° 0 mm 2 mps 593 mmHg 85%
    04:00 +14°C° 0 mm 2 mps 593 mmHg 86%
    05:00 +14°C° 0 mm 2 mps 593 mmHg 86%
    06:00 +14°C° 0 mm 1 mps 593 mmHg 87%
    07:00 +18°C° 0 mm 1 mps 595 mmHg 75%
    08:00 +20°C° 0 mm 1 mps 596 mmHg 64%
    09:00 +23°C° 0 mm 1 mps 598 mmHg 52%
    10:00 +23°C° 0.1 mm 1 mps 598 mmHg 54%
    11:00 +23°C° 0.1 mm 1 mps 597 mmHg 56%
    12:00 +23°C° 0.1 mm 2 mps 597 mmHg 58%
    13:00 +23°C° 0.8 mm 2 mps 596 mmHg 59%
    14:00 +23°C° 0.8 mm 2 mps 596 mmHg 60%
    15:00 +23°C° 0.8 mm 2 mps 595 mmHg 61%
    16:00 +21°C° 0.9 mm 2 mps 594 mmHg 67%
    17:00 +21°C° 0.9 mm 1 mps 594 mmHg 73%
    18:00 +20°C° 0.9 mm 1 mps 594 mmHg 79%
    19:00 +19°C° 0.2 mm 1 mps 594 mmHg 82%
    20:00 +18°C° 0.2 mm 1 mps 594 mmHg 86%
    21:00 +16°C° 0.2 mm 1 mps 594 mmHg 89%
    22:00 +15°C° 0 mm 1 mps 594 mmHg 90%
    23:00 +15°C° 0 mm 1 mps 594 mmHg 91%

    Day after tomorrow, 28 April, Sunday

    Time Temperature Precipitation Wind Pressure Humidity
    00:00 +15°C° 0 mm 1 mps 594 mmHg 92%
    01:00 +14°C° 0 mm 1 mps 593 mmHg 91%
    02:00 +14°C° 0 mm 1 mps 592 mmHg 90%
    03:00 +14°C° 0 mm 1 mps 592 mmHg 90%
    04:00 +14°C° 0 mm 1 mps 592 mmHg 88%
    05:00 +13°C° 0 mm 1 mps 592 mmHg 85%
    06:00 +13°C° 0 mm 1 mps 592 mmHg 83%
    07:00 +16°C° 0 mm 1 mps 594 mmHg 73%
    08:00 +20°C° 0 mm 1 mps 596 mmHg 63%
    09:00 +24°C° 0 mm 1 mps 598 mmHg 52%
    10:00 +24°C° 0.1 mm 1 mps 598 mmHg 50%
    11:00 +25°C° 0.1 mm 1 mps 598 mmHg 48%
    12:00 +26°C° 0.1 mm 2 mps 598 mmHg 46%
    13:00 +25°C° 0.6 mm 2 mps 597 mmHg 49%
    14:00 +25°C° 0.6 mm 2 mps 596 mmHg 51%
    15:00 +25°C° 0.6 mm 2 mps 595 mmHg 53%
    16:00 +23°C° 0.5 mm 2 mps 595 mmHg 60%
    17:00 +21°C° 0.5 mm 2 mps 594 mmHg 67%
    18:00 +19°C° 0.5 mm 2 mps 594 mmHg 74%
    19:00 +19°C° 0.2 mm 1 mps 594 mmHg 77%
    20:00 +18°C° 0.2 mm 1 mps 594 mmHg 81%
    21:00 +16°C° 0.2 mm 1 mps 594 mmHg 84%
    22:00 +16°C° 0 mm 1 mps 594 mmHg 84%
    23:00 +15°C° 0 mm 1 mps 594 mmHg 83%

    29 April, Monday

    Time Temperature Precipitation Wind Pressure Humidity
    00:00 +15°C° 0 mm 1 mps 593 mmHg 83%
    01:00 +14°C° 0 mm 1 mps 593 mmHg 82%
    02:00 +14°C° 0 mm 1 mps 592 mmHg 80%
    03:00 +13°C° 0 mm 1 mps 592 mmHg 79%
    04:00 +13°C° 0 mm 1 mps 592 mmHg 79%
    05:00 +13°C° 0 mm 1 mps 592 mmHg 79%
    06:00 +13°C° 0 mm 1 mps 593 mmHg 78%
    07:00 +16°C° 0 mm 1 mps 594 mmHg 68%
    08:00 +20°C° 0 mm 1 mps 596 mmHg 57%
    09:00 +23°C° 0 mm 1 mps 598 mmHg 46%
    10:00 +25°C° 0 mm 2 mps 598 mmHg 43%
    11:00 +26°C° 0 mm 2 mps 598 mmHg 39%
    12:00 +27°C° 0 mm 2 mps 598 mmHg 36%
    13:00 +26°C° 0.1 mm 2 mps 597 mmHg 38%
    14:00 +26°C° 0.1 mm 2 mps 596 mmHg 40%
    15:00 +25°C° 0.1 mm 3 mps 596 mmHg 43%
    16:00 +24°C° 0.2 mm 2 mps 595 mmHg 50%
    17:00 +21°C° 0.2 mm 2 mps 595 mmHg 58%
    18:00 +20°C° 0.2 mm 2 mps 594 mmHg 65%
    19:00 +19°C° 0 mm 1 mps 594 mmHg 68%
    20:00 +18°C° 0 mm 1 mps 594 mmHg 70%
    21:00 +16°C° 0 mm 1 mps 594 mmHg 73%
    22:00 +15°C° 0 mm 1 mps 594 mmHg 72%
    23:00 +15°C° 0 mm 1 mps 594 mmHg 71%

    30 April, Tuesday

    Time Temperature Precipitation Wind Pressure Humidity
    00:00 +14°C° 0 mm 1 mps 593 mmHg 70%
    01:00 +14°C° 0 mm 1 mps 593 mmHg 70%
    02:00 +14°C° 0 mm 1 mps 593 mmHg 71%
    03:00 +14°C° 0 mm 1 mps 592 mmHg 71%
    04:00 +13°C° 0 mm 1 mps 593 mmHg 74%
    05:00 +13°C° 0 mm 1 mps 593 mmHg 77%
    06:00 +13°C° 0 mm 1 mps 593 mmHg 80%
    07:00 +16°C° 0 mm 1 mps 595 mmHg 69%
    08:00 +20°C° 0 mm 1 mps 596 mmHg 58%
    09:00 +23°C° 0 mm 1 mps 598 mmHg 48%
    10:00 +24°C° 0 mm 1 mps 598 mmHg 43%
    11:00 +26°C° 0 mm 2 mps 598 mmHg 39%
    12:00 +27°C° 0 mm 2 mps 598 mmHg 35%
    13:00 +26°C° 0 mm 2 mps 597 mmHg 37%
    14:00 +26°C° 0 mm 2 mps 597 mmHg 39%
    15:00 +26°C° 0 mm 2 mps 596 mmHg 41%
    16:00 +24°C° 0.2 mm 2 mps 595 mmHg 50%
    17:00 +21°C° 0.2 mm 2 mps 595 mmHg 60%
    18:00 +21°C° 0.2 mm 1 mps 594 mmHg 69%
    19:00 +19°C° 0 mm 1 mps 594 mmHg 73%
    20:00 +18°C° 0 mm 1 mps 594 mmHg 77%
    21:00 +16°C° 0 mm 1 mps 594 mmHg 81%
    22:00 +16°C° 0 mm 1 mps 594 mmHg 82%
    23:00 +15°C° 0 mm 1 mps 594 mmHg 83%

    1 May, Wednesday

    Time Temperature Precipitation Wind Pressure Humidity
    00:00 +15°C° 0 mm 1 mps 594 mmHg 83%
    01:00 +15°C° 0 mm 1 mps 593 mmHg 85%
    02:00 +14°C° 0 mm 1 mps 593 mmHg 86%
    03:00 +14°C° 0 mm 1 mps 592 mmHg 87%
    04:00 +14°C° 0 mm 1 mps 593 mmHg 87%
    05:00 +14°C° 0 mm 1 mps 593 mmHg 87%
    06:00 +14°C° 0 mm 1 mps 593 mmHg 88%
    07:00 +18°C° 0 mm 1 mps 595 mmHg 75%
    08:00 +21°C° 0 mm 1 mps 596 mmHg 63%
    09:00 +24°C° 0 mm 1 mps 598 mmHg 51%
    10:00 +24°C° 0.1 mm 1 mps 598 mmHg 52%
    11:00 +24°C° 0.1 mm 1 mps 597 mmHg 52%
    12:00 +24°C° 0.1 mm 2 mps 597 mmHg 53%
    13:00 +24°C° 0.8 mm 2 mps 596 mmHg 54%
    14:00 +24°C° 0.8 mm 2 mps 596 mmHg 54%
    15:00 +24°C° 0.8 mm 2 mps 596 mmHg 55%
    16:00 +23°C° 0.8 mm 2 mps 595 mmHg 61%
    17:00 +20°C° 0.8 mm 2 mps 595 mmHg 68%
    18:00 +20°C° 0.8 mm 1 mps 594 mmHg 74%
    19:00 +19°C° 0.1 mm 1 mps 594 mmHg 77%
    20:00 +18°C° 0.1 mm 1 mps 594 mmHg 80%
    21:00 +16°C° 0.1 mm 1 mps 594 mmHg 83%
    22:00 +15°C° 0 mm 1 mps 594 mmHg 83%
    23:00 +15°C° 0 mm 1 mps 594 mmHg 83%
    Show more